Weather in Novyi Bykiv

Ukraine / Chernihiv Region     50°35′47″N   31°40′23″E
temp.,
°C
wind,
m/s
gust,
m/s
humid.,
%
clouds,
%
prec.,
mm/h
press.,
hPa
HPBL,
m
22 april, thu
thu2200:00+6ssw478675 0.0 1015128
03:00+6ssw488726 0.0 1015129
06:00+5ssw47875 0.0 1016113
09:00+10sw47715 0.0 1017323
12:00+15sw695332 0.0 10171547
15:00+15ssw6105681 0.9 10161234
18:00+14ssw51061100 0.0 1015524
21:00+12s6136896 0.1 1016423
23 april, fri
fri2300:00+10s716726 0.0 1015406
03:00+8ssw6128863 0.3 1015401
06:00+8wsw3692100 0.2 1015453
09:00+7nw3688100 0.9 1017395
12:00+7w2475100 0.9 1017745
15:00+9wnw4661100 1.8 10171334
18:00+9wnw4659100 0.0 10161378
21:00+6ssw457034 0.0 101678
24 april, sat
sat2400:00+4w4108079 0.1 1016253
03:00+4w48840 0.1 1016221
06:00+2wsw38875 0.0 1016194
09:00+3wnw71194100 0.2 1017694
12:00+6w8105392 0.5 10172008
15:00+7wnw91145100 0.6 10182709
18:00+7wnw710535 0.1 10192178
21:00+3w49655 0.1 1020190
25 april, sun
sun2500:00+2wsw48715 0.0 1020152
03:00+1wsw49745 0.0 1020158
06:000sw497950 0.0 1020186
09:00+5wsw586184 0.0 1019546
12:00+6wsw6884100 0.3 1019881
15:00+6wsw4779100 1.9 1018769
18:00+7wsw347898 0.8 1017424
21:00+5w338051 1.1 101745
26 april, mon
mon2600:00+2w22825 0.1 101827
03:00+1w348448 0.1 101755
06:000w33850 0.0 101757
09:00+5wsw4564100 0.0 1017462
12:00+6wsw566686 0.6 10161218
15:00+8wnw785591 1.8 10151732
18:00+7w68555 0.3 10141826
21:00+3w37695 0.4 1015149